Location: Lombard
(41.8800°N, 88.0080°W)
Time: 00:08:22
(UTC-05:00)

Transit 2A - Pass Details

Date: 15 February 2023
Orbit: 591 x 964 km, 66.7° (Epoch: 20 March)

Event Time Altitude Azimuth Distance (km) Brightness Sun altitude
Rises 22:19:21 0° 332° (NNW) 3,543 10.0 -52.5°
Enters shadow 22:20:40 - 334° (NNW) 3,067 9.6 -52.7°
Reaches altitude 10° 22:21:52 10° 336° (NNW) 2,635 - -52.8°
Maximum altitude 22:28:02 60° 56° (NE) 1,089 - -53.6°
Drops below altitude 10° 22:34:19 10° 136° (SE) 2,692 - -54.4°
Sets 22:36:54 0° 140° (SE) 3,624 - -54.7°
